Location: ?ejkovice
(49.0137°N, 14.3821°E)
Time: 17:56:14
(UTC+00:00)

Cosmos 1745 Rocket - Pass Details

Date: 23 May 2024
Orbit: 953 x 996 km, 83.0° (Epoch: 12 June)

Event Time Altitude Azimuth Distance (km) Brightness Sun altitude
Exits shadow 00:48:37 23° 190° (S) 1,934 5.0 -16.2°
Maximum altitude 00:52:43 86° 278° (W) 985 4.0 -15.9°
Drops below altitude 10° 00:59:03 10° 9° (N) 2,751 7.5 -15.4°
Sets 01:01:36 0° 10° (N) 3,709 8.4 -15.2°
